When you browse on this site, cookies collect data to enhance your experience and personalize the content and advertising you see.
Visit our Privacy Policy to learn more. By continuing to use the site, you agree to this use of cookies and data.
  • In Lithuania
  • List of Countries
  • For 7 days
  • Water Temperature
  • Weather Map
  • Weather Widgets
  • user-avatar
    Login

    Hourly Weather Preston

    Today, 26 February, Wednesday

    Time Temperature Precipitation Wind Pressure Humidity
    00:00 0°C° 0.2 mm 7 mps 743 mmHg 80%
    01:00 0°C° 0.1 mm 7 mps 744 mmHg 80%
    02:00 0°C° 0.1 mm 7 mps 744 mmHg 81%
    03:00 0°C° 0.1 mm 7 mps 744 mmHg 81%
    04:00 +1°C° 0 mm 6 mps 745 mmHg 81%
    05:00 +1°C° 0 mm 6 mps 745 mmHg 81%
    06:00 -1°C° 0 mm 6 mps 745 mmHg 80%
    07:00 0°C° 0.1 mm 7 mps 746 mmHg 80%
    08:00 +1°C° 0.1 mm 8 mps 747 mmHg 80%
    09:00 +1°C° 0.1 mm 9 mps 748 mmHg 80%
    10:00 +2°C° 0.2 mm 9 mps 749 mmHg 76%
    11:00 +2°C° 0.2 mm 9 mps 749 mmHg 73%
    12:00 +2°C° 0.2 mm 10 mps 750 mmHg 69%
    13:00 +2°C° 0.1 mm 9 mps 750 mmHg 67%
    14:00 +2°C° 0.1 mm 9 mps 751 mmHg 64%
    15:00 +2°C° 0.1 mm 9 mps 751 mmHg 62%
    16:00 +1°C° 0.1 mm 8 mps 751 mmHg 67%
    17:00 +2°C° 0.1 mm 7 mps 751 mmHg 71%
    18:00 +1°C° 0.1 mm 6 mps 751 mmHg 75%
    19:00 +1°C° 0.1 mm 5 mps 751 mmHg 77%
    20:00 +1°C° 0.1 mm 5 mps 750 mmHg 79%
    21:00 +1°C° 0.1 mm 5 mps 750 mmHg 81%
    22:00 +1°C° 0.2 mm 4 mps 749 mmHg 83%
    23:00 +1°C° 0.2 mm 4 mps 749 mmHg 86%

    Tomorrow, 27 February, Thursday

    Time Temperature Precipitation Wind Pressure Humidity
    00:00 +1°C° 0.2 mm 4 mps 748 mmHg 88%
    01:00 +1°C° 0.6 mm 4 mps 747 mmHg 91%
    02:00 +1°C° 0.6 mm 3 mps 746 mmHg 94%
    03:00 +1°C° 0.6 mm 3 mps 745 mmHg 97%
    04:00 +2°C° 1 mm 2 mps 744 mmHg 97%
    05:00 +3°C° 1 mm 1 mps 744 mmHg 97%
    06:00 +3°C° 1 mm 1 mps 743 mmHg 97%
    07:00 +2°C° 0.6 mm 2 mps 743 mmHg 97%
    08:00 +1°C° 0.6 mm 3 mps 743 mmHg 97%
    09:00 0°C° 0.6 mm 5 mps 743 mmHg 97%
    10:00 +1°C° 0.1 mm 6 mps 744 mmHg 91%
    11:00 0°C° 0.1 mm 7 mps 745 mmHg 85%
    12:00 +1°C° 0.1 mm 9 mps 746 mmHg 79%
    13:00 +1°C° 0.1 mm 9 mps 746 mmHg 76%
    14:00 +2°C° 0.1 mm 9 mps 747 mmHg 73%
    15:00 +2°C° 0.1 mm 9 mps 747 mmHg 70%
    16:00 +1°C° 0.1 mm 8 mps 748 mmHg 72%
    17:00 +1°C° 0.1 mm 8 mps 749 mmHg 75%
    18:00 +2°C° 0.1 mm 7 mps 750 mmHg 77%
    19:00 0°C° 0 mm 7 mps 750 mmHg 77%
    20:00 0°C° 0 mm 7 mps 751 mmHg 77%
    21:00 +1°C° 0 mm 6 mps 752 mmHg 78%
    22:00 +1°C° 0 mm 6 mps 753 mmHg 78%
    23:00 +1°C° 0 mm 5 mps 753 mmHg 79%

    Day after tomorrow, 28 February, Friday

    Time Temperature Precipitation Wind Pressure Humidity
    00:00 +1°C° 0 mm 5 mps 753 mmHg 80%
    01:00 +1°C° 0 mm 5 mps 753 mmHg 82%
    02:00 +1°C° 0 mm 4 mps 753 mmHg 85%
    03:00 +1°C° 0 mm 4 mps 753 mmHg 87%
    04:00 +2°C° 0 mm 3 mps 753 mmHg 87%
    05:00 +1°C° 0 mm 3 mps 753 mmHg 87%
    06:00 +1°C° 0 mm 3 mps 753 mmHg 87%
    07:00 +1°C° 0 mm 4 mps 752 mmHg 87%
    08:00 +1°C° 0 mm 4 mps 752 mmHg 87%
    09:00 +1°C° 0 mm 4 mps 752 mmHg 87%
    10:00 +1°C° 0 mm 4 mps 751 mmHg 88%
    11:00 +2°C° 0 mm 5 mps 751 mmHg 88%
    12:00 +2°C° 0 mm 5 mps 750 mmHg 89%
    13:00 +2°C° 0.2 mm 5 mps 749 mmHg 91%
    14:00 +2°C° 0.2 mm 5 mps 749 mmHg 93%
    15:00 +2°C° 0.2 mm 5 mps 748 mmHg 95%
    16:00 +2°C° 0.1 mm 5 mps 747 mmHg 94%
    17:00 +2°C° 0.1 mm 6 mps 746 mmHg 94%
    18:00 +2°C° 0.1 mm 6 mps 745 mmHg 93%
    19:00 +2°C° 0.4 mm 6 mps 744 mmHg 93%
    20:00 +2°C° 0.4 mm 6 mps 743 mmHg 93%
    21:00 +3°C° 0.4 mm 6 mps 742 mmHg 94%
    22:00 +3°C° 1.6 mm 6 mps 740 mmHg 95%
    23:00 +3°C° 1.6 mm 6 mps 739 mmHg 95%

    29 February, Saturday

    Time Temperature Precipitation Wind Pressure Humidity
    00:00 +3°C° 1.6 mm 6 mps 737 mmHg 96%
    01:00 +4°C° 1.2 mm 6 mps 736 mmHg 96%
    02:00 +5°C° 1.2 mm 6 mps 734 mmHg 95%
    03:00 +7°C° 1.2 mm 6 mps 732 mmHg 95%
    04:00 +6°C° 0.5 mm 7 mps 731 mmHg 94%
    05:00 +8°C° 0.5 mm 7 mps 730 mmHg 93%
    06:00 +8°C° 0.5 mm 7 mps 729 mmHg 92%
    07:00 +6°C° 1.4 mm 8 mps 729 mmHg 90%
    08:00 +3°C° 1.4 mm 9 mps 729 mmHg 88%
    09:00 +2°C° 1.4 mm 9 mps 729 mmHg 86%
    10:00 +2°C° 0.1 mm 9 mps 729 mmHg 78%
    11:00 +2°C° 0.1 mm 9 mps 730 mmHg 70%
    12:00 +3°C° 0.1 mm 10 mps 730 mmHg 62%
    13:00 +3°C° 0 mm 10 mps 730 mmHg 61%
    14:00 +3°C° 0 mm 11 mps 729 mmHg 60%
    15:00 +3°C° 0 mm 11 mps 728 mmHg 59%
    16:00 +2°C° 0.4 mm 12 mps 727 mmHg 70%
    17:00 0°C° 0.4 mm 13 mps 726 mmHg 80%
    18:00 -1°C° 0.4 mm 13 mps 725 mmHg 90%
    19:00 0°C° 0.6 mm 14 mps 725 mmHg 87%
    20:00 0°C° 0.6 mm 14 mps 725 mmHg 83%
    21:00 0°C° 0.6 mm 15 mps 725 mmHg 80%
    22:00 0°C° 0.2 mm 14 mps 726 mmHg 80%
    23:00 0°C° 0.2 mm 14 mps 726 mmHg 81%

    1 March, Sunday

    Time Temperature Precipitation Wind Pressure Humidity
    00:00 0°C° 0.2 mm 13 mps 727 mmHg 82%
    01:00 -1°C° 0.3 mm 13 mps 727 mmHg 82%
    02:00 -1°C° 0.3 mm 14 mps 727 mmHg 83%
    03:00 -1°C° 0.3 mm 14 mps 728 mmHg 84%
    04:00 -1°C° 0.1 mm 13 mps 728 mmHg 83%
    05:00 -1°C° 0.1 mm 12 mps 727 mmHg 81%
    06:00 -1°C° 0.1 mm 12 mps 727 mmHg 79%
    07:00 -1°C° 0.2 mm 12 mps 727 mmHg 77%
    08:00 0°C° 0.2 mm 12 mps 727 mmHg 76%
    09:00 0°C° 0.2 mm 12 mps 727 mmHg 74%
    10:00 +2°C° 0.1 mm 12 mps 727 mmHg 71%
    11:00 +2°C° 0.1 mm 12 mps 727 mmHg 67%
    12:00 +3°C° 0.1 mm 12 mps 727 mmHg 63%
    13:00 +3°C° 0 mm 12 mps 727 mmHg 65%
    14:00 +3°C° 0 mm 11 mps 726 mmHg 66%
    15:00 +3°C° 0 mm 11 mps 726 mmHg 68%
    16:00 +2°C° 0.1 mm 11 mps 726 mmHg 73%
    17:00 +2°C° 0.1 mm 11 mps 725 mmHg 77%
    18:00 +2°C° 0.1 mm 10 mps 725 mmHg 82%
    19:00 +2°C° 0.4 mm 9 mps 725 mmHg 83%
    20:00 +2°C° 0.4 mm 9 mps 725 mmHg 85%
    21:00 +2°C° 0.4 mm 8 mps 725 mmHg 87%
    22:00 +2°C° 0.7 mm 8 mps 725 mmHg 88%
    23:00 +2°C° 0.7 mm 8 mps 725 mmHg 90%

    2 March, Monday

    Time Temperature Precipitation Wind Pressure Humidity
    00:00 +1°C° 0.7 mm 8 mps 725 mmHg 91%
    01:00 +1°C° 0.5 mm 8 mps 725 mmHg 91%
    02:00 +1°C° 0.5 mm 8 mps 725 mmHg 91%
    03:00 0°C° 0.5 mm 8 mps 725 mmHg 91%
    04:00 +1°C° 0.4 mm 8 mps 726 mmHg 90%
    05:00 +1°C° 0.4 mm 8 mps 726 mmHg 88%
    06:00 +1°C° 0.4 mm 9 mps 727 mmHg 86%
    07:00 +1°C° 0.1 mm 8 mps 728 mmHg 85%
    08:00 +1°C° 0.1 mm 8 mps 728 mmHg 84%
    09:00 +2°C° 0.1 mm 8 mps 729 mmHg 82%
    10:00 +2°C° 0.1 mm 8 mps 730 mmHg 81%
    11:00 +2°C° 0.1 mm 8 mps 731 mmHg 80%
    12:00 +4°C° 0.1 mm 8 mps 732 mmHg 78%
    13:00 +4°C° 0.2 mm 8 mps 732 mmHg 77%
    14:00 +3°C° 0.2 mm 9 mps 733 mmHg 76%
    15:00 +3°C° 0.2 mm 9 mps 734 mmHg 75%
    16:00 +2°C° 0.1 mm 9 mps 734 mmHg 76%
    17:00 +2°C° 0.1 mm 8 mps 735 mmHg 77%
    18:00 +1°C° 0.1 mm 8 mps 736 mmHg 78%
    19:00 +1°C° 0.1 mm 8 mps 737 mmHg 81%
    20:00 0°C° 0.1 mm 8 mps 738 mmHg 84%
    21:00 0°C° 0.1 mm 8 mps 739 mmHg 87%
    22:00 0°C° 0.1 mm 8 mps 739 mmHg 85%
    23:00 0°C° 0.1 mm 8 mps 740 mmHg 84%
    Show more